This demonstration page uses our WeatherBlox Daily Observations layout. Learn more.

Left ArrowRight Arrow

38.89511, -77.03637

Hourly Observations for February 28, 2021

Temp ( °F °C ) Dew Point ( °F °C ) Humidity (%) Winds ( mph kmh ) Pressure ( in mb ) Visibility ( mi km ) Precip ( " mm )
12:52 am 00:52 Cloudy 46 7.8 43 6.1 89 89 SSW 5 7 30.27 1025 10 16 N/A
1:52 am 01:52 Cloudy 46 7.8 44 6.7 93 93 S 5 7 30.29 1026 10 16 N/A
2:52 am 02:52 Cloudy 46 7.8 43 6.1 89 89 N N/A 30.29 1026 10 16 N/A
3:52 am 03:52 Cloudy 47 8.3 44 6.7 90 90 N N/A 30.28 1026 10 16 0.01 0.25
4:52 am 04:52 Cloudy 45 7.2 44 6.7 97 97 N N/A 30.26 1025 9 14 0.02 0.51
5:52 am 05:52 Cloudy with Light Rain 46 7.8 45 7.2 96 96 N N/A 30.27 1025 8 13 0.00 0.00
6:52 am 06:52 Cloudy with Light Rain 47 8.3 45 7.2 93 93 N N/A 30.27 1025 7 11 0.02 0.51
7:52 am 07:52 Cloudy with Light Rain 47 8.3 46 7.8 97 97 N N/A 30.26 1025 6 10 0.02 0.51
8:52 am 08:52 Cloudy with Light Rain 48 8.9 44 6.7 86 86 E 5 7 30.23 1024 10 16 0.02 0.51
9:44 am 09:44 Cloudy with Light Rain 47 8.3 44 6.7 90 90 ESE 6 9 30.21 1023 10 16 0.02 0.51
9:52 am 09:52 Cloudy with Light Rain 48 8.9 44 6.7 86 86 E 6 9 30.22 1023 10 16 0.02 0.51
10:52 am 10:52 Cloudy with Light Rain 47 8.3 44 6.7 90 90 E 5 7 30.21 1023 5 8 0.08 2.03
11:18 am 11:18 Cloudy with Rain 47 8.3 45 7.2 93 93 N N/A 30.24 1024 2 3 0.05 1.27
11:22 am 11:22 Cloudy with Rain 47 8.3 45 7.2 93 93 N N/A 30.24 1024 2 3 0.07 1.78
11:31 am 11:31 Cloudy with Rain 47 8.3 45 7.2 93 93 N N/A 30.24 1024 2 3 0.11 2.79
11:52 am 11:52 Cloudy with Light Rain 46 7.8 44 6.7 93 93 ENE 7 11 30.19 1023 2 3 0.17 4.32
12:14 pm 12:14 Cloudy with Light Rain 47 8.3 45 7.2 93 93 ENE 3 6 30.19 1022 3 4 0.04 1.02
12:52 pm 12:52 Cloudy with Light Rain 46 7.8 44 6.7 93 93 ESE 10 17 30.12 1020 3 4 0.11 2.79
1:37 pm 13:37 Cloudy with Light Rain 46 7.8 43 6.1 89 89 E 9 15 30.10 1019 8 13 0.03 0.76
1:52 pm 13:52 Cloudy with Light Rain 46 7.8 43 6.1 89 89 ESE 8 13 30.09 1019 7 11 0.04 1.02
2:52 pm 14:52 Cloudy with Light Rain 46 7.8 44 6.7 93 93 NE 3 6 30.09 1019 5 8 0.08 2.03
3:42 pm 15:42 Cloudy with Light Rain 46 7.8 44 6.7 93 93 ESE 7 11 30.07 1018 10 16 0.04 1.02
3:52 pm 15:52 Cloudy with Light Rain 46 7.8 43 6.1 89 89 ESE 7 11 30.06 1018 9 14 0.04 1.02
4:07 pm 16:07 Cloudy with Light Rain 46 7.8 43 6.1 89 89 E 9 15 30.04 1017 8 13 0.01 0.25
4:52 pm 16:52 Cloudy with Light Rain 46 7.8 44 6.7 93 93 N N/A 30.03 1017 10 16 0.04 1.02
5:04 pm 17:04 Cloudy with Light Rain 46 7.8 43 6.1 89 89 ENE 6 9 30.02 1017 10 16 0.00 0.00
5:52 pm 17:52 Cloudy 45 7.2 43 6.1 93 93 ENE 6 9 30.01 1016 10 16 0.00 0.00
6:18 pm 18:18 Cloudy with Drizzle 45 7.2 43 6.1 93 93 NE 6 9 30.01 1016 5 8 0.00 0.00
6:40 pm 18:40 Cloudy with Drizzle 45 7.2 44 6.7 97 97 N N/A 30.01 1016 3 5 0.00 0.00
6:52 pm 18:52 Cloudy with Mist and Fog 45 7.2 44 6.7 97 97 N N/A 30.00 1016 6 10 0.00 0.00
7:21 pm 19:21 Cloudy with Drizzle 45 7.2 44 6.7 97 97 N N/A 29.97 1015 3 4 0.00 0.00
7:44 pm 19:44 Cloudy with Drizzle 45 7.2 44 6.7 97 97 N N/A 29.97 1015 2 3 0.00 0.00
7:52 pm 19:52 Cloudy with Drizzle 45 7.2 44 6.7 97 97 N N/A 29.96 1015 1 2 0.00 0.00
8:03 pm 20:03 Cloudy with Drizzle 45 7.2 43 6.1 93 93 N N/A 29.96 1015 1 1 0.00 0.00
8:52 pm 20:52 Mostly Cloudy with Fog 45 7.2 44 6.7 97 97 N N/A 29.93 1014 1 1 0.00 0.00
9:52 pm 21:52 Cloudy with Light Rain 45 7.2 44 6.7 97 97 NNE 6 9 29.93 1013 2 2 0.01 0.25
10:52 pm 22:52 Cloudy with Light Rain 44 6.7 43 6.1 96 96 NE 6 9 29.91 1013 2 3 0.06 1.52
11:23 pm 23:23 Cloudy with Rain 44 6.7 43 6.1 96 96 ENE 5 7 29.88 1012 3 5 0.07 1.78
11:52 pm 23:52 Cloudy with Light Rain 44 6.7 44 6.7 100 100 SSE 3 6 29.85 1011 5 8 0.10 2.54

Powered by AerisWeather